[[{"header":{"parameterUnit":"m.s-1","parameterCategory":1,"la1":30.2991,"la2":30.254,"lo1":-89.0895,"lo2":-89.0444,"dx":0.0017,"dy":0.0017,"nx":28,"ny":28,"refTime":"2023-01-22T03:00:00:Z","depth":0,"parameterNumber":2,"parameterNumberName":"U-component_of_WINDS"},"data":[0,0,0,0,0,0,0,0,0,0,0,0,0,0,0,0,0,0,0,0,0,0,0,0,0,0,0,0,0,0,0,0,0,0,0,0,0,0,0,0,0,0,0,0,0,0,0,0,0,0,0,0,0,0,0,0,0,0,-1.4695,-1.4695,0,-1.4706,-1.4706,-1.4706,-1.4672,-1.4671,-1.467,-1.4669,-1.4682,-1.4683,-1.4684,0,0,0,0,0,0,0,0,0,0,0,0,0,-1.4644,-1.4645,-1.4695,-1.4695,-1.4695,-1.4706,-1.4706,-1.4706,-1.4672,-1.4671,-1.467,-1.4669,-1.4681,-1.4683,-1.4685,0,0,0,0,0,0,0,0,0,0,0,0,0,-1.4662,-1.4645,-1.4694,-1.4679,-1.4678,-1.4706,-1.4706,-1.4706,-1.4673,-1.4671,-1.4669,-1.4668,-1.4681,-1.4683,-1.4685,-1.4728,0,0,-1.4691,-1.4692,0,0,0,0,0,0,0,0,-1.4661,-1.4664,-1.4681,-1.468,-1.4679,-1.4686,-1.4693,-1.4714,-1.4673,-1.4675,-1.4669,-1.4667,-1.4685,-1.4686,-1.4692,-1.4729,-1.473,-1.4691,-1.4692,-1.4693,-1.4694,0,0,0,0,0,0,0,-1.466,-1.4663,-1.4699,-1.4682,-1.468,-1.4672,-1.4673,-1.4697,-1.4688,-1.4674,-1.4672,-1.4674,-1.4684,-1.469,-1.4692,-1.473,-1.4691,-1.4693,-1.4694,-1.4695,-1.4804,-1.4806,0,0,0,0,0,0,-1.466,-1.4662,-1.4699,-1.4699,-1.4666,-1.4674,-1.4675,-1.4685,-1.4688,-1.4687,-1.4675,-1.4672,-1.4687,-1.469,-1.4692,-1.4744,-1.4693,-1.4695,-1.4696,-1.4803,-1.4805,-1.4806,0,0,0,0,0,0,-1.4659,-1.4664,-1.4698,-1.468,-1.4684,-1.4677,-1.4689,-1.4686,-1.4693,-1.4688,-1.4687,-1.4683,-1.4686,-1.4689,-1.472,-1.4744,-1.4696,-1.4698,-1.4801,-1.4803,-1.4806,-1.4848,0,0,0,0,0,0,-1.4658,-1.4664,-1.468,-1.4681,-1.4685,-1.4726,-1.469,-1.4688,-1.4696,-1.4692,-1.4696,-1.4695,-1.4685,-1.4717,-1.4722,-1.4746,-1.4699,-1.4798,-1.4802,-1.4805,-1.4845,-1.4852,-1.4858,0,0,0,0,0,-1.4656,-1.4692,-1.4681,-1.4686,-1.4705,-1.4727,-1.4729,-1.4718,-1.4698,-1.4715,-1.4712,-1.4694,-1.474,-1.472,-1.4725,-1.4751,-1.4797,-1.4801,-1.4804,-1.4842,-1.485,-1.4858,0,0,0,0,0,0,-1.4694,-1.4691,-1.468,-1.4716,-1.4722,-1.4721,-1.4742,-1.4727,-1.4739,-1.4735,-1.472,-1.4721,-1.4755,-1.4755,-1.4733,-1.4793,-1.4765,-1.477,-1.4792,-1.48,-1.4807,-1.4806,-1.4701,0,0,0,0,0,-1.4707,-1.4724,-1.4721,-1.4754,-1.4757,-1.4749,-1.4758,-1.4748,-1.4754,-1.4757,-1.4756,-1.4762,-1.4778,-1.4789,-1.4803,-1.4844,-1.4845,-1.4864,-1.4871,-1.4876,-1.4881,-1.4904,-1.4912,-1.4819,-1.4819,-1.4819,0,0,-1.4733,-1.4733,-1.4746,-1.4761,-1.4765,-1.4784,-1.4751,-1.4773,-1.4787,-1.476,-1.4789,-1.4789,-1.4795,-1.4831,-1.4847,-1.4832,-1.4907,-1.4881,-1.4886,-1.4888,-1.4909,-1.4917,-1.4925,-1.4822,-1.4821,-1.4821,0,0,-1.479,-1.4792,-1.482,-1.4824,-1.483,-1.4824,-1.4831,-1.4832,-1.4831,-1.486,-1.484,-1.4857,-1.4884,-1.489,-1.4896,-1.4956,-1.4941,-1.4961,-1.4997,-1.5019,-1.5026,-1.5033,-1.5055,-1.5063,-1.4966,-1.4966,-1.4966,0,-1.4822,-1.485,-1.4836,-1.4859,-1.4867,-1.4843,-1.4871,-1.4876,-1.4886,-1.4892,-1.4876,-1.491,-1.4913,-1.495,-1.4965,-1.497,-1.4978,-1.4961,-1.5026,-1.5033,-1.5038,-1.5059,-1.5068,-1.4968,-1.4968,-1.4968,-1.4968,0,-1.489,-1.4909,-1.4931,-1.4941,-1.4951,-1.4977,-1.4967,-1.4979,-1.4969,-1.4965,-1.4995,-1.4997,-1.5011,-1.5019,-1.5009,-1.5055,-1.5047,-1.5029,-1.5,-1.505,-1.507,-1.5077,-1.4972,-1.4971,-1.497,-1.497,0,0,-1.4972,-1.4974,-1.4983,-1.4987,-1.4992,-1.5007,-1.5031,-1.5045,-1.5056,-1.5064,-1.5085,-1.5108,-1.5092,-1.5099,-1.509,-1.5109,-1.5157,-1.5088,-1.5088,-1.5102,-1.5209,-1.5223,-1.5233,-1.5147,-1.5148,-1.5149,-1.5209,0,-1.5029,-1.5071,-1.506,-1.5102,-1.512,-1.5098,-1.5119,-1.5124,-1.5122,-1.5137,-1.5134,-1.5151,-1.5128,-1.5132,-1.515,-1.5148,-1.5179,-1.5143,-1.5167,-1.5168,-1.5167,-1.5243,-1.5258,-1.5314,-1.5216,-1.5218,-1.5219,0,-1.5102,-1.5113,-1.5157,-1.5159,-1.5166,-1.5185,-1.5198,-1.5212,-1.5218,-1.5215,-1.5223,-1.5209,-1.5234,-1.5205,-1.5239,-1.5215,-1.5224,-1.5225,-1.5226,-1.5229,-1.5197,-1.5248,-1.5332,-1.5341,-1.523,-1.5229,-1.5229,0,-1.5159,-1.5184,-1.5214,-1.5218,-1.5221,-1.5235,-1.5237,-1.5241,-1.5251,-1.5261,-1.5267,-1.5281,-1.5289,-1.53,-1.5291,-1.527,-1.5327,-1.5297,-1.5325,-1.5326,-1.5339,-1.5338,-1.5426,-1.5343,-1.5343,-1.5343,-1.5343,0,-1.5224,-1.5253,-1.5239,-1.5258,-1.5289,-1.5275,-1.5306,-1.5305,-1.5309,-1.5327,-1.5309,-1.5326,-1.5313,-1.5329,-1.5322,-1.5352,-1.5355,-1.5354,-1.5352,-1.5356,-1.5356,-1.5362,-1.5359,-1.5345,-1.5345,-1.5344,-1.5344,0,-1.5293,-1.5285,-1.5317,-1.5316,-1.5317,-1.534,-1.534,-1.5358,-1.5353,-1.5377,-1.5381,-1.5375,-1.5393,-1.5385,-1.5404,-1.54,-1.5439,-1.5431,-1.5437,-1.5435,-1.5465,-1.5462,-1.556,-1.5572,-1.5481,-1.5481,-1.5482,0,-1.5336,-1.5357,-1.536,-1.537,-1.5374,-1.5391,-1.5401,-1.5388,-1.5399,-1.5407,-1.5424,-1.5441,-1.5453,-1.5484,-1.5481,-1.5496,-1.549,-1.5523,-1.5492,-1.5496,-1.5491,-1.549,-1.5493,-1.5529,-1.553,-1.5531,-1.5532,0,-1.5414,-1.5409,-1.5423,-1.5436,-1.5448,-1.5458,-1.5466,-1.5476,-1.5464,-1.5477,-1.5496,-1.5506,-1.5526,-1.5543,-1.5556,-1.5559,-1.5544,-1.5541,-1.5549,-1.5554,-1.5557,-1.5557,-1.5455,-1.5539,-1.5539,-1.5538,-1.5538,-1.5537,-1.5471,-1.5489,-1.5494,-1.5511,-1.5516,-1.5524,-1.554,-1.5538,-1.5553,-1.5569,-1.556,-1.5582,-1.5588,-1.5604,-1.5608,-1.5626,-1.5613,-1.5624,-1.5626,-1.563,-1.5634,-1.5553,-1.5628,-1.5628,-1.5627,-1.5627,-1.5627,0,-1.5549,-1.5551,-1.5566,-1.5578,-1.5592,-1.5576,-1.5584,-1.5597,-1.5616,-1.5623,-1.5636,-1.5657,-1.5674,-1.5673,-1.5688,-1.5703,-1.5696,-1.5707,-1.5706,-1.5707,-1.5644,-1.5636,-1.5712,-1.5712,-1.5712,-1.5712,-1.5712,-1.5712,-1.5591,-1.562,-1.5616,-1.5648,-1.565,-1.5671,-1.5678,-1.5685,-1.569,-1.5716,-1.5729,-1.5728,-1.5732,-1.5747,-1.5762,-1.5761,-1.5768,-1.5782,-1.5779,-1.572,-1.5712,-1.5704,-1.5697,-1.5784,-1.5784,-1.5841,-1.5842,-1.5842]},{"header":{"parameterUnit":"m.s-1","parameterCategory":1,"la1":30.2991,"la2":30.254,"lo1":-89.0895,"lo2":-89.0444,"dx":0.0017,"dy":0.0017,"nx":28,"ny":28,"refTime":"2023-01-22T03:00:00:Z","depth":0,"parameterNumber":3,"parameterNumberName":"V-component_of_WINDS"},"data":[0,0,0,0,0,0,0,0,0,0,0,0,0,0,0,0,0,0,0,0,0,0,0,0,0,0,0,0,0,0,0,0,0,0,0,0,0,0,0,0,0,0,0,0,0,0,0,0,0,0,0,0,0,0,0,0,0,0,-3.582,-3.582,0,-3.5814,-3.5814,-3.5814,-3.5787,-3.5786,-3.5786,-3.5785,-3.5777,-3.5778,-3.5778,0,0,0,0,0,0,0,0,0,0,0,0,0,-3.5807,-3.5808,-3.582,-3.582,-3.582,-3.5814,-3.5814,-3.5813,-3.5787,-3.5786,-3.5785,-3.5785,-3.5777,-3.5777,-3.5778,0,0,0,0,0,0,0,0,0,0,0,0,0,-3.5808,-3.5808,-3.582,-3.5806,-3.5804,-3.5814,-3.5814,-3.5813,-3.5787,-3.5786,-3.5785,-3.5784,-3.5777,-3.5777,-3.5778,-3.58,0,0,-3.578,-3.578,0,0,0,0,0,0,0,0,-3.5808,-3.5809,-3.5808,-3.5807,-3.5805,-3.58,-3.5806,-3.5809,-3.5787,-3.5794,-3.5785,-3.5784,-3.5785,-3.5785,-3.5786,-3.58,-3.5799,-3.578,-3.578,-3.578,-3.578,0,0,0,0,0,0,0,-3.5808,-3.5809,-3.5817,-3.5808,-3.5806,-3.5799,-3.5798,-3.5807,-3.5795,-3.5793,-3.5791,-3.5791,-3.5785,-3.5786,-3.5786,-3.5799,-3.578,-3.578,-3.5781,-3.5781,-3.5832,-3.5833,0,0,0,0,0,0,-3.581,-3.5809,-3.5817,-3.5817,-3.5804,-3.58,-3.5799,-3.5803,-3.5795,-3.5792,-3.5791,-3.5789,-3.5785,-3.5785,-3.5785,-3.5812,-3.578,-3.5781,-3.5781,-3.5831,-3.5833,-3.5834,0,0,0,0,0,0,-3.581,-3.5811,-3.5818,-3.5812,-3.5813,-3.5801,-3.5805,-3.5803,-3.5804,-3.5794,-3.5791,-3.5795,-3.5784,-3.5785,-3.5797,-3.5811,-3.5781,-3.5782,-3.583,-3.5832,-3.5833,-3.5865,0,0,0,0,0,0,-3.581,-3.5811,-3.582,-3.5813,-3.5813,-3.583,-3.5806,-3.5803,-3.5805,-3.5803,-3.5796,-3.5794,-3.5784,-3.5796,-3.5798,-3.5812,-3.5782,-3.5829,-3.5831,-3.5833,-3.5862,-3.5867,-3.5871,0,0,0,0,0,-3.5809,-3.5828,-3.582,-3.5821,-3.5823,-3.5831,-3.5831,-3.5819,-3.5806,-3.5815,-3.5808,-3.5794,-3.5809,-3.5798,-3.5799,-3.5813,-3.5828,-3.583,-3.5832,-3.586,-3.5866,-3.5871,0,0,0,0,0,0,-3.5836,-3.5827,-3.5818,-3.5835,-3.5834,-3.5826,-3.5836,-3.5825,-3.5827,-3.5824,-3.5809,-3.5808,-3.5823,-3.5819,-3.5806,-3.5835,-3.5816,-3.5819,-3.5837,-3.5843,-3.5847,-3.5848,-3.5783,0,0,0,0,0,-3.5844,-3.5851,-3.5842,-3.5858,-3.5858,-3.5848,-3.585,-3.5841,-3.5839,-3.5838,-3.5833,-3.5831,-3.5835,-3.5839,-3.5842,-3.5861,-3.586,-3.5872,-3.5876,-3.588,-3.5883,-3.5894,-3.59,-3.5841,-3.5841,-3.5841,0,0,-3.586,-3.5856,-3.5861,-3.5864,-3.5862,-3.5869,-3.5847,-3.5856,-3.5862,-3.5839,-3.5852,-3.5847,-3.5844,-3.5861,-3.5868,-3.5858,-3.5899,-3.5883,-3.5886,-3.5887,-3.5897,-3.5903,-3.5908,-3.5843,-3.5843,-3.5842,0,0,-3.5894,-3.5891,-3.5905,-3.5904,-3.5902,-3.5895,-3.5898,-3.5892,-3.5889,-3.5901,-3.5885,-3.5891,-3.5899,-3.5898,-3.5898,-3.5934,-3.5921,-3.5935,-3.5958,-3.597,-3.5974,-3.5978,-3.5992,-3.5997,-3.5937,-3.5938,-3.5938,0,-3.5914,-3.5926,-3.5913,-3.5924,-3.5926,-3.5907,-3.5921,-3.592,-3.5919,-3.5921,-3.591,-3.592,-3.5917,-3.5934,-3.5943,-3.5943,-3.5947,-3.5936,-3.5975,-3.5979,-3.5982,-3.5995,-3.6,-3.5939,-3.5939,-3.5939,-3.5939,0,-3.5952,-3.596,-3.5971,-3.5972,-3.5975,-3.5987,-3.5976,-3.5981,-3.5972,-3.5966,-3.5979,-3.5974,-3.5977,-3.598,-3.5971,-3.5996,-3.5991,-3.5978,-3.5959,-3.599,-3.6002,-3.6007,-3.5942,-3.5941,-3.5941,-3.594,0,0,-3.6002,-3.5997,-3.6001,-3.6002,-3.5999,-3.6005,-3.6016,-3.602,-3.6025,-3.6024,-3.6034,-3.6042,-3.603,-3.6031,-3.6021,-3.6031,-3.6061,-3.6017,-3.6016,-3.6026,-3.609,-3.6101,-3.6106,-3.6052,-3.6053,-3.6054,-3.609,0,-3.6036,-3.6056,-3.6046,-3.6067,-3.6075,-3.6058,-3.6068,-3.6067,-3.6062,-3.6068,-3.6062,-3.6068,-3.6052,-3.6052,-3.6061,-3.6055,-3.6073,-3.6052,-3.6062,-3.6062,-3.6064,-3.6112,-3.6124,-3.6158,-3.6095,-3.6096,-3.6096,0,-3.6077,-3.6081,-3.6104,-3.61,-3.6103,-3.6113,-3.6116,-3.6121,-3.612,-3.6116,-3.6118,-3.6106,-3.6117,-3.6098,-3.6114,-3.61,-3.6103,-3.61,-3.6101,-3.6103,-3.6082,-3.6116,-3.6169,-3.6175,-3.6103,-3.6103,-3.6102,0,-3.6114,-3.6123,-3.6139,-3.614,-3.6136,-3.6143,-3.6142,-3.614,-3.6143,-3.6145,-3.6148,-3.6151,-3.6153,-3.6156,-3.6146,-3.6133,-3.6164,-3.6143,-3.6161,-3.6161,-3.6169,-3.6169,-3.6224,-3.6169,-3.6169,-3.6169,-3.6169,0,-3.6153,-3.6168,-3.6155,-3.6165,-3.6181,-3.6169,-3.6185,-3.6182,-3.6181,-3.6189,-3.6174,-3.6182,-3.6168,-3.6175,-3.6167,-3.6182,-3.6182,-3.6179,-3.6177,-3.6181,-3.6182,-3.6184,-3.6182,-3.617,-3.617,-3.617,-3.6169,0,-3.6197,-3.6189,-3.6204,-3.62,-3.6199,-3.6212,-3.6208,-3.6216,-3.621,-3.6222,-3.6223,-3.6214,-3.6222,-3.6212,-3.6218,-3.6213,-3.6234,-3.6227,-3.6234,-3.6233,-3.6252,-3.6251,-3.6311,-3.6319,-3.6258,-3.6259,-3.6259,0,-3.6223,-3.6234,-3.6231,-3.6237,-3.6236,-3.6244,-3.6248,-3.6237,-3.6241,-3.6242,-3.625,-3.6257,-3.6261,-3.6274,-3.6268,-3.6273,-3.6267,-3.6288,-3.6268,-3.6272,-3.6269,-3.6269,-3.6271,-3.6293,-3.6293,-3.6294,-3.6294,0,-3.627,-3.6266,-3.6273,-3.6278,-3.6284,-3.6287,-3.6289,-3.6294,-3.6282,-3.6288,-3.6296,-3.63,-3.6307,-3.6314,-3.6317,-3.6315,-3.6303,-3.6301,-3.6305,-3.631,-3.6315,-3.6314,-3.6247,-3.63,-3.6299,-3.6299,-3.6298,-3.6298,-3.6307,-3.6317,-3.6317,-3.6325,-3.6326,-3.6329,-3.6337,-3.6333,-3.634,-3.6345,-3.6338,-3.6348,-3.6347,-3.6351,-3.6351,-3.6359,-3.635,-3.6356,-3.6358,-3.636,-3.6363,-3.6313,-3.6359,-3.6359,-3.6359,-3.6359,-3.6358,0,-3.6355,-3.6355,-3.6362,-3.6367,-3.6373,-3.6362,-3.6364,-3.637,-3.638,-3.638,-3.6386,-3.6396,-3.6402,-3.6397,-3.6403,-3.641,-3.6405,-3.6412,-3.6412,-3.6412,-3.637,-3.6367,-3.6417,-3.6417,-3.6417,-3.6417,-3.6417,-3.6417,-3.6381,-3.6398,-3.6394,-3.6411,-3.641,-3.6421,-3.6424,-3.6426,-3.6427,-3.6439,-3.6445,-3.6442,-3.644,-3.6446,-3.6452,-3.645,-3.6454,-3.6463,-3.646,-3.6421,-3.6415,-3.641,-3.6406,-3.6464,-3.6464,-3.6501,-3.6501,-3.6502]}]]